Location: Hurstbourne Priors
(51.2000°N, 1.3667°W)
Time: 08:49:38
(UTC+00:00)

STARLINK-52 - Pass Details

Date: 09 April 2020
Orbit: 393 x 395 km, 53.0° (Epoch: 22 May)

Event Time Altitude Azimuth Distance (km) Brightness Sun altitude
Rises 20:46:40 0° 245° (WSW) 2,289 7.2 -16.9°
Reaches altitude 10° 20:48:43 10° 243° (WSW) 1,435 6.1 -17.1°
Maximum altitude 20:51:56 74° 158° (SSE) 416 2.8 -17.5°
Enters shadow 20:52:27 57° 95° (E) 475 3.0 -17.6°
